Location: Bannatyne
(13.0833°N, 59.5333°W)
Time: 14:24:33
(UTC+00:00)

Vanguard 2 Rocket - Pass Details

Date: 20 January 2020
Orbit: 554 x 3326 km, 32.9° (Epoch: 29 March)

Event Time Altitude Azimuth Distance (km) Brightness Sun altitude
Rises 21:23:32 0° 255° (WSW) 7,271 14.0 5.9°
Reaches altitude 10° 21:37:26 10° 219° (SW) 6,148 12.3 2.8°
Maximum altitude 21:39:26 10° 213° (SSW) 6,063 12.1 2.3°
Drops below altitude 10° 21:41:24 10° 207° (SSW) 6,004 11.9 1.9°
Sets 21:53:37 0° 170° (S) 6,259 11.3 -0.9°
